Theta_e
286 286 285 285 285 285 285 285 285 285 285 285 285 285 285 285 285 285 286 286 286 287 288 289 290 292 292 293 293 293 294 294 295 295 295 295 295 295 296 296 296 296
286 286 286 286 286 286 285 286 286 286 286 286 286 286 286 286 286 286 285 285 285 285 286 286 287 288 289 290 291 292 292 293 293 294 294 294 294 294 295 295 295 296
286 286 286 286 286 286 286 286 286 286 286 286 286 286 286 286 286 286 286 286 286 286 286 285 285 285 286 287 288 289 290 291 292 292 292 293 293 293 294 294 294 294
286 286 286 286 286 286 286 286 286 286 286 286 286 286 286 286 286 286 286 286 286 286 286 286 286 286 285 285 285 286 287 287 289 289 290 291 292 292 292 293 293 293
286 286 286 286 286 287 287 287 287 287 287 286 286 286 286 286 286 286 286 286 286 286 286 286 286 286 286 285 285 285 285 285 286 286 287 288 289 290 291 291 292 292
286 286 286 286 286 286 286 286 286 286 286 286 286 286 286 286 285 285 285 285 285 285 285 285 286 286 285 285 285 285 285 285 285 285 285 285 286 287 288 289 290 291
286 286 286 286 286 286 285 285 285 285 285 285 285 285 285 285 285 285 285 284 284 284 284 284 285 285 285 285 284 284 284 285 285 285 285 285 285 285 285 286 287 288
285 285 285 285 286 285 285 285 285 284 284 284 284 284 284 284 284 284 284 284 284 284 284 283 283 284 284 284 284 284 284 284 284 284 284 285 285 285 285 285 285 285
286 285 286 286 286 286 285 285 284 284 284 283 283 283 283 282 282 282 283 282 283 283 283 283 283 283 283 283 283 283 283 284 283 283 283 283 284 284 285 285 285 285
286 286 286 286 285 285 285 284 284 283 283 283 282 282 282 282 281 281 281 281 281 281 281 282 282 282 282 282 282 282 282 282 283 282 282 283 283 283 284 284 284 284
286 286 286 285 285 284 284 283 283 282 282 282 281 281 281 281 281 281 281 281 280 280 280 280 281 281 281 281 281 281 281 281 281 281 282 282 282 282 282 283 284 284
286 286 286 285 284 284 283 283 282 281 281 281 280 281 281 281 280 280 280 280 280 280 280 280 280 280 280 280 281 281 281 280 280 280 281 281 281 281 281 282 283 283
286 286 285 285 284 284 283 282 281 280 280 279 280 280 280 280 280 279 279 279 279 279 279 279 279 279 280 280 280 280 280 280 280 280 280 280 280 281 281 281 282 282
285 285 285 284 284 283 282 281 280 279 279 279 279 279 278 278 278 278 278 278 278 278 278 279 279 279 279 279 279 279 279 279 279 279 280 280 280 280 281 281 282 282
284 284 283 282 282 281 280 279 278 278 278 278 277 277 277 277 277 277 277 277 277 277 278 278 278 278 278 278 278 279 279 279 280 280 280 280 280 280 280 281 281 281
283 283 281 280 279 279 278 277 277 276 276 276 276 276 276 275 275 275 276 276 276 277 277 277 277 277 277 278 278 279 279 280 280 280 280 280 280 280 280 280 280 281
281 280 279 279 278 277 276 276 275 275 275 275 275 274 274 274 274 274 275 275 275 275 276 276 276 276 277 277 278 278 279 279 279 279 279 279 279 279 279 279 280 280
279 278 277 277 276 276 275 275 275 274 274 274 273 273 273 273 273 273 273 273 273 273 273 273 274 274 275 275 276 276 277 277 278 278 278 278 278 278 278 279 279 279
277 276 276 275 275 274 274 274 273 273 273 272 272 271 271 271 270 270 270 270 270 270 270 270 271 271 272 273 274 274 275 276 276 276 276 276 277 277 277 277 277 278
275 275 274 274 273 273 273 272 272 272 271 270 270 269 269 268 268 268 268 268 268 268 268 268 268 269 270 271 272 272 273 274 274 275 275 275 275 275 276 276 276 276
274 273 273 273 272 272 272 271 271 270 269 268 267 267 267 266 266 266 266 266 266 266 266 265 266 266 268 269 270 271 272 272 273 273 273 273 274 274 274 274 275 275
272 272 271 271 271 271 271 270 269 268 267 266 266 265 265 265 265 265 264 264 264 264 264 264 264 265 266 267 268 269 270 270 270 271 271 271 271 271 272 272 273 273
270 270 270 270 269 269 269 268 267 266 265 265 264 264 264 264 264 264 264 263 263 263 263 263 263 264 265 267 267 268 269 269 269 269 270 270 270 270 270 271 271 272
269 269 269 269 268 268 267 266 265 264 264 264 263 263 263 263 263 263 263 263 263 263 263 263 263 264 264 266 266 267 268 269 269 269 269 270 270 270 270 270 270 271
269 268 268 268 267 266 265 264 264 264 263 263 263 263 263 263 262 262 262 262 262 262 263 263 263 263 264 265 266 267 268 268 269 269 269 269 269 269 269 269 269 270
268 268 267 267 266 265 264 264 263 263 263 263 262 262 262 262 262 262 262 262 262 262 262 262 263 263 263 264 266 267 268 268 269 269 269 269 269 269 269 269 269 270
Wind_Speed
25 25 25 25 25 25 24 24 25 25 25 26 26 26 25 25 24 24 24 23 23 22 21 20 20 19 18 18 18 18 18 18 18 18 18 19 20 20 22 22 23 24
24 24 24 23 23 23 24 24 24 25 25 26 26 25 25 25 25 24 24 24 23 23 23 23 22 22 21 20 19 19 18 18 18 18 18 19 20 21 22 22 23 24
22 23 24 24 24 24 25 24 25 26 27 27 27 28 28 28 28 27 26 26 25 24 23 23 23 23 23 23 23 22 20 19 19 18 19 19 19 21 21 22 23 24
21 23 23 24 24 24 25 26 26 27 28 28 29 29 29 30 30 30 30 29 29 28 27 26 25 24 24 24 24 25 24 23 21 20 20 20 20 21 21 21 23 24
18 20 21 22 23 24 25 27 27 28 29 29 29 30 30 30 31 31 31 31 31 31 31 30 29 28 26 25 24 24 25 25 25 24 24 23 22 21 21 22 23 24
15 18 20 21 23 24 24 26 26 27 28 30 31 31 31 31 32 32 32 32 32 32 32 32 32 32 31 29 28 25 24 24 25 26 27 27 26 25 23 23 24 25
12 15 19 20 22 23 23 24 25 25 26 27 29 30 30 31 32 32 33 33 33 33 33 33 33 33 32 32 32 31 28 26 25 25 26 27 28 29 28 26 26 26
11 13 17 21 24 25 25 25 26 25 25 26 28 29 29 29 30 31 31 32 33 34 35 35 35 35 34 33 33 33 33 31 29 27 27 27 27 28 28 28 29 28
13 15 19 23 26 27 28 27 27 27 26 27 28 29 29 29 29 30 30 31 32 34 35 36 37 37 37 36 35 34 34 34 33 31 30 29 28 28 28 28 29 30
16 18 20 23 25 27 28 28 27 27 27 27 28 29 30 30 31 31 32 32 32 33 34 35 37 38 39 39 38 36 35 34 34 34 33 32 31 30 29 28 29 30
16 18 20 22 24 27 28 29 28 28 28 28 28 29 31 31 32 33 33 33 33 34 34 35 36 36 37 39 39 38 37 36 35 34 33 33 33 33 32 30 29 31
16 18 20 23 26 29 30 31 31 30 30 30 30 31 32 32 33 33 33 34 35 35 34 35 36 35 35 36 37 38 38 38 38 37 35 34 34 34 34 33 31 32
16 19 22 25 28 31 32 32 32 32 32 33 32 33 33 34 34 34 34 34 35 35 35 35 35 35 35 34 34 33 34 35 37 38 39 38 37 36 35 34 33 33
18 21 23 26 29 32 33 33 33 33 33 33 33 33 34 34 35 36 37 37 37 36 36 35 34 34 34 32 31 30 30 32 33 35 36 38 39 40 39 37 35 35
20 23 25 27 29 31 32 32 32 32 33 33 34 34 35 35 36 37 37 38 38 37 37 36 34 34 33 30 29 29 30 30 31 31 32 34 36 38 40 40 40 38
23 25 27 28 29 30 30 30 30 31 33 34 35 36 36 37 37 36 35 35 36 36 37 36 36 35 33 29 28 28 30 30 31 32 32 33 34 36 37 39 39 39
25 26 27 28 29 29 29 30 31 33 34 35 37 37 37 36 36 35 35 34 33 34 35 36 36 36 33 30 30 30 30 31 32 33 33 33 34 34 36 37 38 38
24 25 26 27 27 28 30 31 33 35 36 37 37 37 36 35 34 34 35 34 33 35 36 36 37 35 33 32 32 32 31 31 32 33 34 35 35 35 37 38 38 39
22 23 24 25 26 28 30 32 33 35 35 35 36 35 34 35 35 35 35 34 34 35 36 38 38 35 33 33 33 33 33 33 33 35 36 37 38 38 38 38 39 39
21 22 24 25 27 28 30 32 32 33 33 32 33 34 34 35 35 35 34 33 32 33 36 38 37 34 32 33 33 33 33 33 33 35 36 37 38 38 38 39 40 39
20 22 24 26 27 29 30 31 31 31 32 32 32 33 33 33 34 34 34 33 33 33 36 39 37 33 32 33 32 32 32 32 31 32 33 34 35 35 36 37 38 38
20 22 24 25 27 28 29 30 31 30 30 31 32 32 32 32 32 32 33 35 35 35 36 39 37 32 30 31 31 31 31 31 30 31 32 33 34 35 34 34 35 37
19 21 23 25 26 27 28 29 29 30 30 30 31 32 32 32 33 33 33 34 36 36 36 38 37 32 30 31 31 31 31 31 30 31 32 33 34 34 33 33 33 34
19 21 22 24 25 26 27 28 28 30 30 29 29 31 32 32 33 35 35 34 35 35 34 34 35 33 30 31 31 30 30 31 30 31 31 32 32 32 30 30 30 30
19 20 21 23 24 25 26 28 29 29 30 29 28 30 32 33 33 34 35 34 34 35 33 32 34 34 31 30 30 29 29 30 30 31 31 31 31 32 32 32 33 33
19 20 21 22 23 25 26 27 28 29 29 29 30 30 31 32 33 33 35 35 34 34 33 32 33 34 31 29 29 28 29 30 30 30 31 31 32 33 34 34 34 33
Wind_Direction
58 56 54 52 50 46 43 41 37 35 32 29 27 25 23 21 18 15 14 13 12 10 6 2 356 349 340 331 324 318 314 311 308 307 306 304 303 302 299 295 291 286
51 49 46 43 41 37 34 31 29 27 24 21 19 16 15 14 12 11 8 6 6 4 2 0 358 355 351 345 339 330 324 318 312 310 309 305 304 304 302 300 297 293
44 41 38 34 31 28 24 23 21 19 17 14 12 9 7 5 4 3 2 1 360 358 357 355 353 351 349 347 344 340 336 331 325 320 313 307 305 304 303 303 301 298
38 34 32 28 25 21 18 16 15 13 10 9 6 4 1 359 357 356 355 354 353 352 351 350 349 347 345 342 340 339 338 336 334 331 324 315 310 307 305 304 302 300
38 33 30 25 20 16 12 10 7 5 3 2 1 359 356 353 353 351 350 349 347 346 345 344 343 342 341 339 337 335 333 333 333 332 330 325 320 315 310 307 304 301
37 30 25 20 14 10 7 4 2 359 357 355 354 354 351 349 347 346 345 344 342 341 340 338 338 337 336 335 334 332 330 328 327 328 327 326 324 321 318 313 309 305
35 24 18 13 7 4 360 358 356 354 352 349 347 347 346 343 342 341 340 338 337 336 335 333 332 331 331 330 328 328 326 324 323 322 320 320 321 320 320 319 315 311
29 14 9 5 0 357 354 351 349 348 346 342 340 340 339 337 335 334 333 332 331 330 329 328 327 326 326 325 324 322 322 321 321 319 316 315 315 315 315 316 315 312
8 360 356 354 351 349 347 345 342 340 339 337 334 333 332 331 329 328 327 326 324 324 323 322 322 321 321 320 319 318 317 316 316 316 314 312 310 309 310 310 309 308
350 347 345 343 342 342 341 339 336 333 332 331 329 327 327 326 325 324 323 322 320 318 318 317 316 316 316 314 314 314 313 312 312 312 311 310 307 306 306 305 303 301
339 337 335 334 335 336 336 334 332 330 329 328 327 325 324 323 322 321 320 318 316 315 314 312 312 312 311 309 309 310 310 309 309 309 308 307 305 304 304 302 299 296
329 327 327 329 330 332 332 331 329 328 328 328 327 325 323 322 320 319 318 316 314 312 311 309 309 308 306 305 306 307 308 308 308 308 307 305 303 302 301 300 297 294
321 322 323 324 325 326 326 325 324 324 324 324 324 322 321 320 319 317 315 314 311 310 309 307 306 304 302 302 302 303 304 305 306 307 306 305 303 301 300 298 296 293
317 319 319 320 321 321 320 320 320 321 321 320 320 319 317 316 315 314 312 311 310 309 307 306 304 302 301 301 301 302 301 301 301 301 301 302 302 301 300 299 296 293
317 318 319 320 320 319 319 319 319 319 318 317 316 315 314 313 312 311 310 310 309 308 307 306 304 302 302 303 304 304 303 301 299 297 297 296 297 297 297 297 296 294
316 316 317 318 319 319 319 319 318 317 316 315 314 313 313 312 311 311 310 309 308 308 307 305 303 302 303 305 306 305 304 302 300 298 296 294 292 292 291 291 292 292
313 313 314 315 317 318 318 318 316 316 315 314 314 313 313 312 311 310 309 308 308 307 305 304 302 302 304 307 307 305 303 302 300 298 295 292 290 288 288 288 288 289
311 312 313 315 317 317 316 316 315 315 315 315 314 313 313 312 310 309 308 308 308 306 304 303 301 303 306 308 306 304 303 302 299 296 293 290 288 286 285 285 286 286
312 314 315 315 316 315 315 315 315 314 315 314 313 312 311 310 309 309 308 309 309 307 305 303 303 305 308 307 305 304 303 301 298 294 291 288 287 285 284 284 284 284
314 314 315 314 315 315 315 315 315 314 314 313 311 311 311 310 310 310 310 310 310 308 306 304 304 308 310 307 306 305 303 301 297 293 291 289 286 285 284 284 283 282
315 314 314 315 316 317 317 316 316 314 313 313 312 311 310 310 310 310 310 310 309 308 306 304 306 310 310 308 307 306 304 301 298 295 292 290 288 287 286 284 283 282
314 314 315 317 318 318 318 317 316 314 313 313 312 310 309 309 309 309 309 309 308 308 306 305 307 310 309 308 307 306 305 303 299 295 292 290 289 288 287 285 284 283
316 316 317 319 320 319 317 316 314 312 312 312 310 309 308 308 309 308 308 307 307 307 306 306 307 309 308 306 306 305 304 302 298 295 292 290 289 289 288 287 286 285
318 318 319 320 319 317 315 313 312 310 310 310 308 307 307 308 309 308 307 307 306 305 306 305 305 306 306 305 305 304 302 300 297 294 291 290 291 291 290 290 290 290
320 320 320 320 318 316 313 311 310 309 309 309 307 306 306 307 308 307 306 305 305 304 304 303 303 305 306 304 304 303 301 299 296 293 291 291 291 291 292 292 292 292
321 321 321 319 317 315 314 311 310 309 309 309 308 307 307 307 307 306 304 304 304 304 304 304 304 305 305 304 303 303 301 299 296 293 291 291 290 290 290 290 290 291